| time (UTC) | temp F | wind direction | speed MPH | gust MPH | rain 1hr in | rain 24hr in | rain mn in | humidity % | barometer mb |
| 20260509011541 | 48 | 270 | 4.0 | 6.0 | 0.00 | 0.00 | 0.00 | 80 | 1017.3 |
| 20260509010039 | 48 | 271 | 3.0 | 8.0 | 0.00 | 0.00 | 0.00 | 78 | 1017.3 |
| 20260509004540 | 49 | 277 | 4.0 | 6.0 | 0.00 | 0.00 | 0.00 | 77 | 1017.3 |
| 20260509003041 | 50 | 283 | 3.0 | 7.0 | 0.00 | 0.00 | 0.00 | 76 | 1017.5 |
| 20260509001531 | 50 | 304 | 4.0 | 8.0 | 0.00 | 0.00 | 0.00 | 75 | 1017.5 |
| 20260509000036 | 50 | 291 | 4.0 | 7.0 | 0.00 | 0.00 | 0.00 | 75 | 1017.6 |
| 20260508234535 | 50 | 289 | 4.0 | 7.0 | 0.00 | 0.00 | 0.00 | 75 | 1017.5 |
| 20260508233025 | 50 | 291 | 4.0 | 7.0 | 0.00 | 0.00 | 0.00 | 75 | 1017.7 |
| 20260508231524 | 50 | 292 | 4.0 | 8.0 | 0.00 | 0.00 | 0.00 | 75 | 1017.7 |
| 20260508230022 | 51 | 296 | 5.0 | 8.0 | 0.00 | 0.00 | 0.00 | 76 | 1017.7 |
| 20260508224519 | 51 | 306 | 4.0 | 8.0 | 0.00 | 0.00 | 0.00 | 75 | 1017.7 |
| 20260508223018 | 51 | 306 | 4.0 | 9.0 | 0.00 | 0.00 | 0.00 | 75 | 1017.9 |
| 20260508221515 | 51 | 308 | 5.0 | 9.0 | 0.00 | 0.00 | 0.00 | 75 | 1017.6 |
| 20260508220011 | 52 | 283 | 5.0 | 9.0 | 0.00 | 0.00 | 0.00 | 74 | 1017.7 |
| 20260508214514 | 52 | 271 | 6.0 | 9.0 | 0.00 | 0.00 | 0.00 | 73 | 1017.5 |
| 20260508213020 | 52 | 273 | 5.0 | 8.0 | 0.00 | 0.00 | 0.00 | 72 | 1017.6 |
| 20260508211510 | 53 | 268 | 3.0 | 8.0 | 0.00 | 0.00 | 0.00 | 71 | 1017.4 |
| 20260508210010 | 53 | 294 | 5.0 | 11.0 | 0.00 | 0.00 | 0.00 | 70 | 1017.3 |
| 20260508204509 | 53 | 289 | 4.0 | 8.0 | 0.00 | 0.00 | 0.00 | 70 | 1017.4 |
| 20260508203006 | 53 | 272 | 3.0 | 6.0 | 0.00 | 0.00 | 0.00 | 69 | 1017.3 |
| 20260508201512 | 54 | 270 | 3.0 | 6.0 | 0.00 | 0.00 | 0.00 | 68 | 1017.4 |
| 20260508200013 | 55 | 267 | 3.0 | 6.0 | 0.00 | 0.00 | 0.00 | 67 | 1017.2 |
| 20260508194506 | 55 | 263 | 4.0 | 6.0 | 0.00 | 0.00 | 0.00 | 65 | 1017.2 |
| 20260508193007 | 56 | 289 | 4.0 | 6.0 | 0.00 | 0.00 | 0.00 | 64 | 1017.0 |
| 20260508191503 | 57 | 271 | 3.0 | 5.0 | 0.00 | 0.00 | 0.00 | 63 | 1016.8 |
| 20260508190006 | 58 | 278 | 2.0 | 4.0 | 0.00 | 0.00 | 0.00 | 61 | 1016.6 |
| 20260508184506 | 59 | 265 | 2.0 | 6.0 | 0.00 | 0.00 | 0.00 | 60 | 1016.4 |
| 20260508183002 | 59 | 268 | 5.0 | 10.0 | 0.00 | 0.00 | 0.00 | 58 | 1016.3 |
| 20260508181501 | 60 | 255 | 2.0 | 6.0 | 0.00 | 0.00 | 0.00 | 57 | 1016.2 |
| 20260508180111 | 61 | 275 | 3.0 | 8.0 | 0.00 | 0.00 | 0.00 | 56 | 1016.0 |
| 20260508174604 | 61 | 246 | 3.0 | 9.0 | 0.00 | 0.00 | 0.00 | 55 | 1015.8 |
| 20260508173059 | 62 | 271 | 5.0 | 10.0 | 0.00 | 0.00 | 0.00 | 53 | 1015.8 |
| 20260508171558 | 63 | 271 | 6.0 | 12.0 | 0.00 | 0.00 | 0.00 | 51 | 1015.7 |
| 20260508170058 | 63 | 276 | 8.0 | 12.0 | 0.00 | 0.00 | 0.00 | 54 | 1015.5 |
| 20260508164558 | 63 | 307 | 7.0 | 11.0 | 0.00 | 0.00 | 0.00 | 53 | 1015.6 |
| 20260508163102 | 63 | 327 | 6.0 | 11.0 | 0.00 | 0.00 | 0.00 | 53 | 1015.7 |
| 20260508161606 | 64 | 267 | 8.0 | 12.0 | 0.00 | 0.00 | 0.00 | 52 | 1015.6 |
| 20260508160057 | 63 | 301 | 3.0 | 11.0 | 0.00 | 0.00 | 0.00 | 53 | 1015.6 |
| 20260508154558 | 64 | 278 | 6.0 | 11.0 | 0.00 | 0.00 | 0.00 | 52 | 1015.8 |
| 20260508153055 | 64 | 296 | 5.0 | 12.0 | 0.00 | 0.00 | 0.00 | 53 | 1015.9 |
| 20260508151557 | 64 | 307 | 7.0 | 15.0 | 0.00 | 0.00 | 0.00 | 54 | 1016.1 |
| 20260508150051 | 63 | 302 | 4.0 | 12.0 | 0.00 | 0.00 | 0.00 | 55 | 1016.1 |
| 20260508144549 | 63 | 302 | 6.0 | 11.0 | 0.00 | 0.00 | 0.00 | 55 | 1016.1 |
| 20260508143050 | 63 | 328 | 10.0 | 14.0 | 0.00 | 0.00 | 0.00 | 55 | 1016.3 |
| 20260508141547 | 64 | 263 | 7.0 | 14.0 | 0.00 | 0.00 | 0.00 | 53 | 1016.3 |
| 20260508140046 | 64 | 323 | 11.0 | 16.0 | 0.00 | 0.00 | 0.00 | 53 | 1016.4 |
| 20260508134544 | 65 | 296 | 8.0 | 15.0 | 0.00 | 0.00 | 0.00 | 53 | 1016.3 |
| 20260508133101 | 65 | 258 | 2.0 | 13.0 | 0.00 | 0.00 | 0.00 | 51 | 1016.5 |
| 20260508131547 | 65 | 256 | 5.0 | 11.0 | 0.00 | 0.00 | 0.00 | 53 | 1016.6 |
| 20260508130044 | 65 | 285 | 5.0 | 11.0 | 0.00 | 0.00 | 0.00 | 49 | 1016.7 |
| 20260508124542 | 65 | 276 | 4.0 | 10.0 | 0.00 | 0.00 | 0.00 | 52 | 1016.7 |
| 20260508123053 | 64 | 271 | 2.0 | 11.0 | 0.00 | 0.00 | 0.00 | 50 | 1016.7 |
| 20260508121550 | 64 | 262 | 6.0 | 13.0 | 0.00 | 0.00 | 0.00 | 50 | 1016.7 |
| 20260508120041 | 63 | 302 | 5.0 | 9.0 | 0.00 | 0.00 | 0.00 | 53 | 1016.7 |
| 20260508114540 | 64 | 337 | 3.0 | 11.0 | 0.00 | 0.00 | 0.00 | 50 | 1016.8 |
| 20260508113041 | 66 | 319 | 7.0 | 11.0 | 0.00 | 0.00 | 0.00 | 49 | 1016.8 |
| 20260508111537 | 65 | 317 | 9.0 | 15.0 | 0.00 | 0.00 | 0.00 | 49 | 1017.1 |
| 20260508110043 | 64 | 329 | 6.0 | 12.0 | 0.00 | 0.00 | 0.00 | 50 | 1016.9 |
| 20260508104534 | 65 | 302 | 6.0 | 12.0 | 0.00 | 0.00 | 0.00 | 54 | 1017.1 |
| 20260508103034 | 65 | 323 | 5.0 | 13.0 | 0.00 | 0.00 | 0.00 | 51 | 1017.0 |
| 20260508101533 | 65 | 268 | 4.0 | 14.0 | 0.00 | 0.00 | 0.00 | 56 | 1017.1 |
| 20260508100031 | 64 | 283 | 6.0 | 14.0 | 0.00 | 0.00 | 0.00 | 56 | 1017.3 |
| 20260508094527 | 64 | 302 | 7.0 | 14.0 | 0.00 | 0.00 | 0.00 | 57 | 1017.2 |
| 20260508093026 | 62 | 322 | 5.0 | 13.0 | 0.00 | 0.00 | 0.00 | 63 | 1017.3 |
| 20260508091527 | 62 | 1 | 6.0 | 12.0 | 0.00 | 0.00 | 0.00 | 60 | 1017.3 |
| 20260508090024 | 62 | 287 | 6.0 | 12.0 | 0.00 | 0.00 | 0.00 | 59 | 1017.3 |
| 20260508084520 | 62 | 274 | 5.0 | 11.0 | 0.00 | 0.00 | 0.00 | 62 | 1017.5 |
| 20260508083016 | 61 | 315 | 7.0 | 11.0 | 0.00 | 0.00 | 0.00 | 65 | 1017.6 |
| 20260508081513 | 60 | 229 | 5.0 | 11.0 | 0.00 | 0.00 | 0.00 | 67 | 1017.4 |
| 20260508080009 | 59 | 314 | 4.0 | 10.0 | 0.00 | 0.00 | 0.00 | 68 | 1017.4 |
| 20260508074504 | 58 | 278 | 3.0 | 11.0 | 0.00 | 0.00 | 0.00 | 71 | 1017.3 |
| 20260508073000 | 57 | 297 | 4.0 | 11.0 | 0.00 | 0.00 | 0.00 | 72 | 1017.3 |
| 20260508071559 | 56 | 312 | 8.0 | 12.0 | 0.00 | 0.00 | 0.00 | 74 | 1017.2 |
| 20260508070101 | 55 | 285 | 7.0 | 13.0 | 0.00 | 0.00 | 0.00 | 75 | 1017.2 |
| 20260508064548 | 54 | 267 | 7.0 | 10.0 | 0.00 | 0.00 | 0.00 | 80 | 1017.2 |
| 20260508063044 | 52 | 271 | 6.0 | 10.0 | 0.00 | 0.00 | 0.00 | 82 | 1017.1 |
| 20260508061542 | 51 | 268 | 5.0 | 9.0 | 0.00 | 0.00 | 0.00 | 85 | 1017.0 |
| 20260508060038 | 49 | 272 | 5.0 | 8.0 | 0.00 | 0.00 | 0.00 | 88 | 1017.0 |
| 20260508054542 | 48 | 274 | 3.0 | 8.0 | 0.00 | 0.00 | 0.00 | 90 | 1017.0 |
| 20260508053036 | 47 | 239 | 2.0 | 4.0 | 0.00 | 0.00 | 0.00 | 91 | 1017.0 |
| 20260508051535 | 46 | 239 | 2.0 | 4.0 | 0.00 | 0.00 | 0.00 | 90 | 1016.9 |
| 20260508050035 | 45 | 239 | 2.0 | 4.0 | 0.00 | 0.00 | 0.00 | 89 | 1016.9 |
| 20260508044534 | 46 | 239 | 1.0 | 4.0 | 0.00 | 0.00 | 0.00 | 89 | 1016.8 |
| 20260508043031 | 46 | 230 | 3.0 | 4.0 | 0.00 | 0.00 | 0.00 | 88 | 1016.7 |
| 20260508041528 | 46 | 229 | 0.0 | 3.0 | 0.00 | 0.00 | 0.00 | 88 | 1016.7 |
| 20260508040027 | 47 | 229 | 0.0 | 0.0 | 0.00 | 0.00 | 0.00 | 88 | 1016.6 |
| 20260508034534 | 47 | 229 | 0.0 | 3.0 | 0.00 | 0.00 | 0.00 | 89 | 1016.6 |
| 20260508033026 | 47 | 229 | 0.0 | 0.0 | 0.00 | 0.00 | 0.00 | 88 | 1016.5 |
| 20260508031522 | 47 | 227 | 0.0 | 0.0 | 0.00 | 0.00 | 0.00 | 89 | 1016.6 |
| 20260508030021 | 47 | 227 | 0.0 | 0.0 | 0.00 | 0.00 | 0.00 | 89 | 1016.6 |
| 20260508024519 | 47 | 227 | 2.0 | 4.0 | 0.00 | 0.00 | 0.00 | 89 | 1016.6 |
| 20260508023018 | 47 | 227 | 2.0 | 4.0 | 0.00 | 0.00 | 0.00 | 89 | 1016.6 |
| 20260508021517 | 47 | 210 | 2.0 | 4.0 | 0.00 | 0.00 | 0.00 | 89 | 1016.7 |
| 20260508020016 | 47 | 210 | 0.0 | 4.0 | 0.00 | 0.00 | 0.00 | 89 | 1016.6 |
| 20260508014515 | 47 | 191 | 2.0 | 4.0 | 0.00 | 0.00 | 0.00 | 89 | 1016.8 |
| 20260508013012 | 47 | 186 | 2.0 | 3.0 | 0.00 | 0.00 | 0.00 | 89 | 1016.7 |